QPF
0.00 0.00 0.00 0.01 0.01 0.01 0.03 0.04 0.04 0.04 0.03 0.04 0.04 0.04 0.04 0.03 0.04 0.04 0.04 0.03 0.02 0.03 0.03 0.03 0.03 0.03 0.02 0.01 0.01 0.02 0.04 0.03 0.04 0.05 0.06 0.06 0.05 0.03 0.04 0.06 0.07 0.07 0.06 0.05
0.00 0.00 0.00 0.00 0.01 0.01 0.02 0.02 0.03 0.03 0.04 0.04 0.03 0.04 0.03 0.04 0.04 0.03 0.03 0.03 0.02 0.02 0.02 0.02 0.03 0.03 0.01 0.01 0.02 0.01 0.03 0.03 0.03 0.04 0.04 0.05 0.05 0.04 0.03 0.04 0.07 0.09 0.09 0.06
0.01 0.00 0.01 0.01 0.02 0.02 0.02 0.03 0.03 0.04 0.04 0.04 0.03 0.04 0.05 0.05 0.04 0.04 0.04 0.03 0.02 0.02 0.02 0.02 0.03 0.03 0.02 0.01 0.02 0.01 0.02 0.02 0.02 0.02 0.03 0.03 0.04 0.03 0.03 0.03 0.05 0.07 0.09 0.09
0.01 0.01 0.01 0.02 0.02 0.02 0.02 0.02 0.03 0.03 0.03 0.04 0.05 0.06 0.05 0.05 0.05 0.06 0.05 0.03 0.02 0.02 0.02 0.02 0.02 0.03 0.02 0.01 0.02 0.01 0.01 0.01 0.01 0.01 0.01 0.01 0.02 0.02 0.02 0.02 0.03 0.05 0.06 0.07
0.02 0.01 0.01 0.01 0.01 0.02 0.03 0.03 0.03 0.03 0.02 0.03 0.04 0.04 0.05 0.05 0.06 0.07 0.05 0.03 0.02 0.02 0.02 0.02 0.02 0.02 0.01 0.01 0.01 0.00 0.00 0.00 0.01 0.00 0.01 0.01 0.01 0.01 0.02 0.02 0.02 0.04 0.05 0.05
0.01 0.01 0.01 0.01 0.01 0.02 0.02 0.03 0.02 0.02 0.02 0.02 0.03 0.03 0.04 0.05 0.06 0.06 0.05 0.03 0.02 0.01 0.01 0.01 0.02 0.02 0.01 0.01 0.01 0.01 0.01 0.01 0.01 0.01 0.01 0.01 0.01 0.01 0.02 0.02 0.02 0.03 0.04 0.05
0.01 0.01 0.01 0.01 0.01 0.01 0.02 0.02 0.02 0.02 0.03 0.03 0.03 0.04 0.04 0.04 0.05 0.06 0.05 0.03 0.02 0.01 0.01 0.01 0.01 0.02 0.01 0.01 0.01 0.01 0.02 0.01 0.01 0.01 0.01 0.01 0.01 0.01 0.02 0.03 0.03 0.03 0.03 0.03
0.01 0.01 0.01 0.01 0.01 0.02 0.03 0.02 0.02 0.03 0.03 0.03 0.03 0.03 0.03 0.04 0.04 0.04 0.04 0.03 0.02 0.02 0.02 0.01 0.01 0.02 0.02 0.02 0.02 0.02 0.02 0.02 0.01 0.02 0.02 0.02 0.02 0.02 0.02 0.03 0.03 0.04 0.04 0.03
0.01 0.01 0.01 0.02 0.02 0.03 0.02 0.02 0.02 0.02 0.02 0.03 0.03 0.03 0.03 0.04 0.04 0.03 0.03 0.03 0.02 0.02 0.01 0.01 0.02 0.02 0.02 0.02 0.03 0.02 0.02 0.02 0.02 0.02 0.03 0.03 0.03 0.03 0.03 0.03 0.03 0.04 0.03 0.03
0.01 0.01 0.01 0.02 0.02 0.02 0.02 0.02 0.02 0.02 0.02 0.02 0.03 0.03 0.03 0.04 0.04 0.03 0.03 0.03 0.03 0.02 0.02 0.02 0.02 0.02 0.02 0.03 0.03 0.03 0.03 0.03 0.03 0.03 0.03 0.03 0.04 0.04 0.04 0.04 0.04 0.04 0.04 0.04
0.01 0.01 0.01 0.01 0.01 0.02 0.02 0.01 0.01 0.01 0.02 0.02 0.03 0.03 0.04 0.04 0.04 0.03 0.02 0.02 0.02 0.02 0.02 0.02 0.02 0.02 0.03 0.03 0.03 0.03 0.03 0.03 0.03 0.02 0.02 0.03 0.03 0.03 0.03 0.04 0.04 0.03 0.03 0.03
0.01 0.01 0.01 0.01 0.01 0.02 0.02 0.01 0.01 0.01 0.01 0.02 0.03 0.04 0.04 0.04 0.04 0.03 0.02 0.02 0.02 0.01 0.02 0.02 0.02 0.03 0.03 0.03 0.03 0.03 0.03 0.03 0.03 0.02 0.02 0.03 0.03 0.03 0.04 0.04 0.04 0.04 0.03 0.03
0.01 0.01 0.01 0.01 0.01 0.01 0.02 0.01 0.01 0.02 0.02 0.02 0.02 0.03 0.03 0.03 0.03 0.03 0.02 0.02 0.02 0.01 0.02 0.02 0.02 0.02 0.03 0.03 0.03 0.04 0.04 0.04 0.03 0.02 0.02 0.02 0.02 0.02 0.03 0.03 0.03 0.03 0.03 0.03
0.01 0.01 0.01 0.01 0.01 0.01 0.01 0.02 0.02 0.02 0.02 0.02 0.02 0.02 0.02 0.02 0.02 0.02 0.02 0.02 0.02 0.01 0.01 0.02 0.02 0.02 0.02 0.03 0.03 0.04 0.04 0.04 0.04 0.03 0.02 0.01 0.01 0.01 0.01 0.02 0.02 0.02 0.02 0.02
0.01 0.01 0.01 0.01 0.01 0.01 0.01 0.01 0.01 0.02 0.02 0.02 0.02 0.02 0.02 0.02 0.02 0.02 0.02 0.02 0.02 0.01 0.01 0.02 0.02 0.02 0.02 0.03 0.03 0.03 0.03 0.03 0.03 0.03 0.03 0.02 0.02 0.02 0.01 0.01 0.01 0.01 0.01 0.01
0.01 0.01 0.01 0.01 0.01 0.01 0.01 0.01 0.01 0.02 0.02 0.02 0.02 0.02 0.02 0.02 0.02 0.02 0.02 0.02 0.02 0.02 0.02 0.02 0.02 0.03 0.03 0.03 0.03 0.03 0.03 0.04 0.03 0.03 0.03 0.03 0.02 0.02 0.02 0.02 0.01 0.01 0.01 0.01
0.01 0.01 0.01 0.01 0.01 0.01 0.01 0.01 0.02 0.02 0.02 0.02 0.02 0.02 0.02 0.01 0.01 0.02 0.02 0.03 0.02 0.02 0.02 0.02 0.02 0.02 0.02 0.02 0.03 0.03 0.04 0.04 0.04 0.03 0.03 0.03 0.02 0.02 0.02 0.02 0.02 0.02 0.02 0.02
0.01 0.01 0.01 0.01 0.01 0.01 0.01 0.01 0.01 0.01 0.02 0.02 0.02 0.02 0.02 0.01 0.02 0.02 0.02 0.02 0.02 0.02 0.02 0.02 0.02 0.02 0.02 0.02 0.02 0.03 0.03 0.04 0.04 0.04 0.04 0.04 0.03 0.03 0.03 0.03 0.02 0.02 0.02 0.02
0.01 0.01 0.01 0.01 0.01 0.01 0.01 0.01 0.01 0.01 0.01 0.02 0.02 0.02 0.01 0.02 0.02 0.02 0.02 0.02 0.02 0.02 0.03 0.03 0.03 0.02 0.02 0.02 0.02 0.02 0.03 0.03 0.04 0.04 0.05 0.05 0.05 0.04 0.04 0.04 0.04 0.03 0.03 0.03
0.01 0.01 0.01 0.01 0.01 0.01 0.01 0.01 0.01 0.01 0.01 0.01 0.02 0.01 0.01 0.01 0.01 0.01 0.01 0.01 0.02 0.03 0.03 0.03 0.02 0.02 0.02 0.02 0.02 0.02 0.02 0.03 0.03 0.04 0.04 0.04 0.05 0.05 0.05 0.04 0.04 0.04 0.04 0.03
0.01 0.01 0.01 0.01 0.01 0.01 0.01 0.01 0.01 0.01 0.01 0.01 0.01 0.01 0.01 0.01 0.01 0.01 0.01 0.01 0.02 0.02 0.02 0.02 0.02 0.02 0.02 0.02 0.02 0.02 0.02 0.03 0.03 0.03 0.04 0.04 0.04 0.04 0.04 0.04 0.04 0.04 0.04 0.04
0.01 0.01 0.01 0.01 0.01 0.01 0.01 0.01 0.01 0.01 0.01 0.01 0.01 0.01 0.01 0.01 0.01 0.01 0.01 0.01 0.01 0.02 0.01 0.01 0.02 0.02 0.02 0.02 0.02 0.02 0.03 0.03 0.03 0.03 0.03 0.03 0.03 0.03 0.03 0.03 0.04 0.04 0.04 0.04
0.01 0.01 0.01 0.01 0.01 0.01 0.01 0.01 0.01 0.01 0.01 0.01 0.01 0.01 0.01 0.01 0.01 0.01 0.01 0.01 0.01 0.01 0.01 0.01 0.02 0.02 0.02 0.02 0.02 0.02 0.02 0.02 0.02 0.02 0.02 0.02 0.02 0.02 0.02 0.03 0.03 0.03 0.03 0.03
0.01 0.01 0.01 0.01 0.01 0.01 0.00 0.01 0.01 0.01 0.01 0.01 0.01 0.01 0.01 0.01 0.01 0.01 0.01 0.01 0.01 0.01 0.01 0.02 0.02 0.02 0.02 0.02 0.02 0.02 0.02 0.02 0.02 0.02 0.02 0.02 0.02 0.02 0.02 0.02 0.02 0.02 0.02 0.02
0.01 0.01 0.01 0.01 0.01 0.01 0.01 0.01 0.01 0.01 0.01 0.01 0.01 0.01 0.01 0.01 0.01 0.01 0.01 0.01 0.01 0.01 0.01 0.02 0.02 0.01 0.01 0.01 0.02 0.02 0.02 0.02 0.02 0.02 0.02 0.02 0.01 0.01 0.01 0.01 0.01 0.01 0.01 0.01
0.01 0.01 0.01 0.01 0.01 0.01 0.01 0.01 0.01 0.01 0.01 0.01 0.01 0.01 0.01 0.01 0.01 0.01 0.01 0.01 0.01 0.01 0.01 0.01 0.01 0.01 0.01 0.01 0.01 0.01 0.01 0.02 0.02 0.02 0.02 0.01 0.01 0.01 0.01 0.01 0.01 0.01 0.01 0.01
0.01 0.01 0.01 0.01 0.01 0.01 0.01 0.01 0.01 0.01 0.01 0.01 0.01 0.01 0.01 0.01 0.01 0.01 0.01 0.01 0.01 0.01 0.01 0.01 0.01 0.01 0.01 0.01 0.01 0.01 0.01 0.01 0.01 0.01 0.01 0.01 0.01 0.01 0.01 0.01 0.01 0.01 0.01 0.01
MSLP
1036.85 1036.56 1036.23 1035.85 1035.45 1035.01 1034.52 1033.96 1033.31 1032.58 1031.79 1030.96 1030.15 1029.40 1028.77 1028.30 1028.01 1027.91 1027.98 1028.18 1028.46 1028.75 1029.02 1029.22 1029.34 1029.37 1029.31 1029.20 1029.06 1028.89 1028.71 1028.53 1028.34 1028.12 1027.87 1027.58 1027.25 1026.88 1026.50 1026.12 1025.75 1025.41 1025.09 1024.78
1036.83 1036.34 1035.76 1035.15 1034.54 1033.92 1033.31 1032.70 1032.07 1031.42 1030.75 1030.07 1029.41 1028.80 1028.28 1027.88 1027.62 1027.50 1027.52 1027.64 1027.84 1028.06 1028.28 1028.45 1028.56 1028.60 1028.59 1028.52 1028.42 1028.29 1028.14 1027.98 1027.80 1027.58 1027.32 1027.02 1026.67 1026.30 1025.90 1025.51 1025.13 1024.77 1024.44 1024.12
1036.79 1036.08 1035.27 1034.41 1033.56 1032.75 1032.01 1031.33 1030.71 1030.13 1029.59 1029.07 1028.59 1028.15 1027.77 1027.47 1027.27 1027.15 1027.14 1027.20 1027.31 1027.46 1027.60 1027.72 1027.81 1027.85 1027.85 1027.81 1027.73 1027.63 1027.51 1027.35 1027.16 1026.94 1026.66 1026.34 1025.98 1025.58 1025.17 1024.76 1024.37 1023.99 1023.63 1023.30
1036.64 1035.74 1034.71 1033.63 1032.57 1031.59 1030.72 1029.97 1029.35 1028.84 1028.41 1028.05 1027.74 1027.47 1027.24 1027.05 1026.91 1026.82 1026.78 1026.78 1026.82 1026.89 1026.96 1027.02 1027.07 1027.10 1027.10 1027.06 1027.01 1026.92 1026.80 1026.64 1026.44 1026.19 1025.89 1025.55 1025.16 1024.75 1024.32 1023.89 1023.47 1023.08 1022.71 1022.35
1036.24 1035.19 1034.01 1032.77 1031.56 1030.45 1029.49 1028.70 1028.08 1027.62 1027.29 1027.06 1026.90 1026.77 1026.67 1026.57 1026.49 1026.42 1026.36 1026.32 1026.30 1026.29 1026.29 1026.30 1026.31 1026.31 1026.30 1026.27 1026.22 1026.13 1026.01 1025.84 1025.62 1025.35 1025.03 1024.65 1024.24 1023.81 1023.36 1022.92 1022.49 1022.08 1021.69 1021.32
1035.45 1034.32 1033.06 1031.75 1030.47 1029.31 1028.32 1027.52 1026.93 1026.52 1026.27 1026.14 1026.08 1026.05 1026.04 1026.01 1025.97 1025.91 1025.83 1025.75 1025.68 1025.61 1025.56 1025.52 1025.50 1025.48 1025.46 1025.43 1025.37 1025.28 1025.15 1024.97 1024.73 1024.44 1024.09 1023.69 1023.26 1022.81 1022.35 1021.89 1021.45 1021.03 1020.63 1020.25
1034.17 1033.04 1031.78 1030.50 1029.25 1028.13 1027.18 1026.44 1025.89 1025.55 1025.36 1025.29 1025.30 1025.33 1025.37 1025.37 1025.35 1025.28 1025.18 1025.07 1024.95 1024.84 1024.75 1024.68 1024.63 1024.60 1024.57 1024.54 1024.48 1024.39 1024.25 1024.05 1023.80 1023.48 1023.12 1022.70 1022.26 1021.79 1021.32 1020.86 1020.41 1019.98 1019.57 1019.17
1032.37 1031.30 1030.15 1028.99 1027.88 1026.89 1026.07 1025.42 1024.97 1024.70 1024.57 1024.54 1024.58 1024.63 1024.68 1024.69 1024.65 1024.56 1024.44 1024.30 1024.15 1024.01 1023.89 1023.80 1023.74 1023.70 1023.67 1023.64 1023.58 1023.48 1023.34 1023.13 1022.86 1022.53 1022.15 1021.72 1021.26 1020.78 1020.30 1019.83 1019.37 1018.93 1018.51 1018.10
1030.12 1029.18 1028.21 1027.26 1026.37 1025.60 1024.96 1024.48 1024.16 1023.97 1023.89 1023.90 1023.94 1023.99 1024.02 1024.00 1023.93 1023.82 1023.67 1023.51 1023.33 1023.18 1023.05 1022.95 1022.88 1022.84 1022.81 1022.78 1022.72 1022.62 1022.46 1022.25 1021.96 1021.61 1021.21 1020.76 1020.28 1019.79 1019.30 1018.81 1018.34 1017.89 1017.45 1017.02
1027.58 1026.82 1026.08 1025.40 1024.80 1024.29 1023.90 1023.62 1023.45 1023.36 1023.35 1023.37 1023.41 1023.43 1023.42 1023.37 1023.27 1023.12 1022.95 1022.76 1022.58 1022.41 1022.28 1022.18 1022.11 1022.07 1022.04 1022.00 1021.94 1021.83 1021.66 1021.42 1021.12 1020.74 1020.31 1019.84 1019.33 1018.81 1018.29 1017.78 1017.29 1016.80 1016.34 1015.89
1024.97 1024.41 1023.94 1023.56 1023.26 1023.05 1022.92 1022.85 1022.84 1022.86 1022.90 1022.95 1022.97 1022.96 1022.92 1022.82 1022.69 1022.52 1022.33 1022.13 1021.94 1021.77 1021.64 1021.54 1021.47 1021.43 1021.39 1021.34 1021.26 1021.13 1020.93 1020.67 1020.33 1019.92 1019.45 1018.93 1018.38 1017.82 1017.26 1016.71 1016.17 1015.65 1015.16 1014.68
1022.50 1022.16 1021.95 1021.86 1021.87 1021.94 1022.05 1022.19 1022.32 1022.44 1022.54 1022.59 1022.61 1022.57 1022.49 1022.37 1022.21 1022.02 1021.83 1021.63 1021.45 1021.29 1021.16 1021.06 1020.98 1020.92 1020.87 1020.79 1020.67 1020.51 1020.27 1019.96 1019.57 1019.11 1018.58 1018.00 1017.40 1016.78 1016.16 1015.55 1014.96 1014.39 1013.86 1013.34
1020.33 1020.20 1020.24 1020.41 1020.67 1020.99 1021.30 1021.60 1021.86 1022.05 1022.18 1022.25 1022.25 1022.20 1022.10 1021.96 1021.79 1021.61 1021.42 1021.24 1021.07 1020.92 1020.79 1020.69 1020.60 1020.51 1020.42 1020.30 1020.14 1019.93 1019.63 1019.26 1018.81 1018.28 1017.69 1017.04 1016.36 1015.67 1014.97 1014.30 1013.65 1013.03 1012.45 1011.89
1018.54 1018.59 1018.83 1019.22 1019.69 1020.17 1020.64 1021.05 1021.38 1021.62 1021.77 1021.84 1021.83 1021.77 1021.67 1021.53 1021.38 1021.22 1021.06 1020.90 1020.75 1020.61 1020.48 1020.37 1020.25 1020.13 1020.00 1019.83 1019.61 1019.33 1018.97 1018.53 1018.01 1017.41 1016.74 1016.02 1015.26 1014.49 1013.72 1012.98 1012.26 1011.59 1010.96 1010.37
1017.12 1017.33 1017.73 1018.27 1018.86 1019.46 1020.01 1020.47 1020.83 1021.08 1021.23 1021.29 1021.28 1021.23 1021.14 1021.03 1020.91 1020.79 1020.66 1020.54 1020.41 1020.29 1020.16 1020.02 1019.87 1019.71 1019.52 1019.29 1019.00 1018.65 1018.23 1017.73 1017.14 1016.47 1015.73 1014.94 1014.12 1013.28 1012.45 1011.63 1010.86 1010.13 1009.45 1008.82
1016.02 1016.35 1016.86 1017.48 1018.14 1018.78 1019.34 1019.80 1020.15 1020.38 1020.52 1020.57 1020.57 1020.53 1020.47 1020.41 1020.34 1020.27 1020.19 1020.11 1020.01 1019.89 1019.75 1019.59 1019.40 1019.19 1018.94 1018.64 1018.29 1017.88 1017.39 1016.83 1016.19 1015.48 1014.69 1013.85 1012.98 1012.08 1011.20 1010.33 1009.50 1008.73 1008.00 1007.33
1015.14 1015.56 1016.14 1016.79 1017.46 1018.08 1018.61 1019.03 1019.33 1019.53 1019.64 1019.69 1019.69 1019.69 1019.67 1019.66 1019.66 1019.65 1019.63 1019.58 1019.51 1019.39 1019.24 1019.05 1018.82 1018.54 1018.23 1017.87 1017.46 1016.99 1016.46 1015.86 1015.19 1014.45 1013.65 1012.79 1011.89 1010.97 1010.05 1009.15 1008.28 1007.46 1006.69 1005.97
1014.43 1014.91 1015.51 1016.15 1016.78 1017.34 1017.80 1018.15 1018.39 1018.55 1018.63 1018.68 1018.71 1018.74 1018.78 1018.84 1018.90 1018.96 1018.99 1018.98 1018.93 1018.81 1018.64 1018.41 1018.12 1017.79 1017.42 1017.00 1016.54 1016.03 1015.48 1014.86 1014.19 1013.45 1012.65 1011.80 1010.91 1009.99 1009.07 1008.15 1007.25 1006.39 1005.57 1004.79
1013.82 1014.34 1014.93 1015.54 1016.10 1016.57 1016.95 1017.22 1017.39 1017.50 1017.57 1017.62 1017.68 1017.76 1017.87 1018.00 1018.14 1018.25 1018.33 1018.35 1018.31 1018.18 1017.98 1017.71 1017.37 1016.98 1016.55 1016.09 1015.59 1015.06 1014.49 1013.89 1013.23 1012.53 1011.76 1010.95 1010.10 1009.21 1008.29 1007.37 1006.46 1005.55 1004.67 1003.82
1013.31 1013.84 1014.41 1014.95 1015.43 1015.81 1016.10 1016.29 1016.40 1016.48 1016.53 1016.60 1016.71 1016.85 1017.02 1017.22 1017.42 1017.59 1017.71 1017.76 1017.71 1017.57 1017.34 1017.02 1016.64 1016.19 1015.72 1015.21 1014.69 1014.15 1013.59 1013.00 1012.39 1011.73 1011.03 1010.27 1009.47 1008.63 1007.74 1006.83 1005.90 1004.96 1004.02 1003.09
1012.90 1013.43 1013.95 1014.43 1014.81 1015.10 1015.30 1015.42 1015.49 1015.54 1015.60 1015.70 1015.85 1016.05 1016.29 1016.55 1016.81 1017.03 1017.18 1017.23 1017.18 1017.03 1016.76 1016.40 1015.97 1015.49 1014.97 1014.44 1013.90 1013.36 1012.82 1012.27 1011.70 1011.10 1010.47 1009.78 1009.04 1008.25 1007.41 1006.51 1005.58 1004.61 1003.61 1002.59
1012.60 1013.11 1013.58 1013.97 1014.27 1014.47 1014.59 1014.65 1014.69 1014.73 1014.81 1014.94 1015.14 1015.40 1015.70 1016.02 1016.32 1016.57 1016.74 1016.81 1016.75 1016.57 1016.28 1015.90 1015.43 1014.92 1014.38 1013.83 1013.28 1012.75 1012.23 1011.72 1011.20 1010.66 1010.09 1009.47 1008.80 1008.06 1007.26 1006.39 1005.46 1004.47 1003.42 1002.33
1012.41 1012.87 1013.27 1013.58 1013.80 1013.92 1013.98 1014.00 1014.02 1014.06 1014.16 1014.34 1014.58 1014.89 1015.24 1015.60 1015.94 1016.22 1016.40 1016.47 1016.41 1016.22 1015.91 1015.51 1015.03 1014.50 1013.95 1013.40 1012.86 1012.35 1011.85 1011.38 1010.90 1010.42 1009.90 1009.34 1008.72 1008.04 1007.27 1006.43 1005.51 1004.52 1003.45 1002.31
1012.29 1012.70 1013.03 1013.26 1013.39 1013.45 1013.46 1013.45 1013.47 1013.53 1013.66 1013.87 1014.16 1014.51 1014.90 1015.29 1015.65 1015.94 1016.13 1016.20 1016.14 1015.95 1015.64 1015.23 1014.76 1014.23 1013.69 1013.16 1012.64 1012.15 1011.68 1011.23 1010.80 1010.35 1009.88 1009.36 1008.79 1008.15 1007.42 1006.62 1005.73 1004.74 1003.68 1002.54
1012.23 1012.57 1012.82 1012.97 1013.03 1013.04 1013.02 1013.00 1013.02 1013.11 1013.27 1013.52 1013.84 1014.23 1014.64 1015.05 1015.42 1015.71 1015.90 1015.97 1015.91 1015.73 1015.43 1015.04 1014.59 1014.10 1013.59 1013.08 1012.59 1012.13 1011.69 1011.27 1010.86 1010.44 1010.00 1009.52 1008.98 1008.37 1007.69 1006.92 1006.07 1005.13 1004.10 1003.00
1012.22 1012.48 1012.64 1012.72 1012.73 1012.70 1012.67 1012.65 1012.69 1012.81 1013.00 1013.28 1013.64 1014.04 1014.46 1014.86 1015.23 1015.51 1015.69 1015.76 1015.71 1015.54 1015.27 1014.92 1014.50 1014.05 1013.59 1013.13 1012.69 1012.26 1011.86 1011.47 1011.08 1010.68 1010.25 1009.79 1009.27 1008.70 1008.05 1007.33 1006.53 1005.66 1004.70 1003.68
1012.25 1012.43 1012.52 1012.54 1012.51 1012.47 1012.43 1012.44 1012.50 1012.65 1012.87 1013.17 1013.54 1013.94 1014.35 1014.74 1015.07 1015.34 1015.50 1015.56 1015.51 1015.36 1015.12 1014.82 1014.46 1014.07 1013.67 1013.27 1012.88 1012.51 1012.14 1011.77 1011.40 1011.02 1010.60 1010.15 1009.65 1009.10 1008.49 1007.82 1007.09 1006.29 1005.44 1004.53
Thickness
5331 5333 5333 5334 5337 5340 5342 5350 5357 5364 5364 5364 5364 5368 5374 5382 5388 5396 5402 5408 5414 5420 5425 5431 5436 5442 5449 5456 5462 5468 5474 5481 5486 5491 5497 5500 5504 5508 5510 5513 5515 5518 5519 5521
5323 5328 5329 5330 5333 5334 5335 5339 5344 5349 5351 5352 5353 5358 5366 5371 5377 5384 5390 5396 5402 5408 5414 5420 5426 5432 5438 5444 5450 5456 5462 5468 5474 5479 5484 5488 5492 5495 5499 5501 5504 5506 5508 5510
5333 5320 5324 5333 5325 5324 5326 5327 5332 5338 5341 5342 5344 5349 5355 5360 5365 5372 5379 5385 5391 5397 5403 5409 5415 5420 5427 5432 5439 5445 5450 5455 5461 5466 5471 5476 5479 5483 5486 5489 5492 5494 5496 5498
5321 5319 5320 5329 5315 5317 5318 5318 5319 5324 5329 5332 5335 5341 5347 5351 5356 5362 5367 5374 5380 5386 5392 5398 5404 5410 5416 5421 5427 5433 5438 5442 5447 5453 5458 5461 5466 5470 5474 5477 5479 5482 5484 5486
5313 5318 5327 5321 5311 5306 5309 5315 5314 5314 5319 5323 5327 5337 5346 5344 5346 5351 5357 5362 5368 5375 5381 5387 5393 5400 5406 5411 5416 5421 5426 5430 5435 5440 5444 5448 5453 5457 5460 5463 5465 5468 5471 5474
5304 5312 5320 5320 5305 5301 5304 5315 5310 5307 5309 5312 5318 5333 5341 5336 5337 5341 5347 5353 5358 5364 5371 5378 5384 5390 5395 5400 5405 5409 5414 5418 5423 5428 5432 5436 5440 5443 5446 5449 5452 5454 5457 5460
5300 5305 5316 5301 5294 5298 5306 5313 5301 5300 5301 5304 5309 5315 5320 5323 5327 5332 5337 5343 5348 5354 5361 5367 5373 5378 5384 5389 5393 5397 5401 5406 5411 5415 5420 5423 5427 5430 5433 5436 5438 5441 5445 5447
5293 5298 5306 5289 5290 5293 5298 5293 5292 5293 5294 5296 5300 5304 5308 5313 5318 5323 5328 5333 5338 5344 5350 5356 5362 5368 5373 5378 5381 5385 5390 5395 5399 5403 5407 5411 5414 5417 5420 5422 5425 5428 5431 5433
5290 5298 5289 5282 5283 5282 5281 5283 5285 5286 5287 5288 5292 5297 5301 5305 5310 5314 5319 5324 5329 5334 5341 5346 5351 5356 5362 5366 5370 5374 5378 5383 5387 5391 5395 5398 5402 5405 5407 5409 5413 5416 5418 5421
5273 5283 5277 5275 5274 5274 5273 5274 5277 5278 5279 5281 5284 5289 5293 5297 5301 5306 5311 5315 5320 5325 5330 5335 5340 5345 5350 5354 5359 5363 5367 5371 5375 5379 5382 5385 5388 5391 5394 5398 5401 5403 5405 5408
5269 5274 5271 5273 5271 5270 5269 5268 5269 5271 5272 5274 5277 5282 5285 5289 5293 5298 5302 5307 5310 5315 5319 5324 5329 5334 5338 5343 5348 5352 5356 5359 5363 5366 5369 5372 5374 5377 5381 5384 5387 5390 5393 5395
5277 5274 5270 5273 5270 5267 5265 5264 5264 5265 5267 5269 5271 5275 5279 5282 5286 5290 5294 5298 5302 5306 5310 5314 5318 5323 5328 5332 5336 5341 5344 5348 5351 5354 5356 5359 5362 5364 5366 5369 5372 5375 5378 5381
5267 5265 5263 5263 5262 5260 5259 5260 5260 5260 5261 5264 5266 5268 5272 5276 5280 5283 5286 5290 5294 5297 5301 5305 5309 5313 5317 5321 5325 5329 5333 5336 5339 5342 5345 5347 5350 5352 5355 5357 5359 5362 5365 5368
5259 5256 5256 5257 5256 5254 5253 5253 5254 5255 5256 5257 5260 5262 5265 5269 5272 5275 5279 5282 5285 5289 5292 5296 5300 5304 5307 5311 5314 5318 5321 5324 5327 5330 5333 5335 5338 5341 5344 5347 5349 5351 5353 5355
5255 5252 5253 5252 5250 5248 5247 5247 5248 5250 5251 5252 5254 5256 5258 5261 5265 5268 5270 5273 5277 5280 5283 5287 5290 5294 5297 5301 5304 5307 5310 5312 5315 5318 5321 5323 5326 5329 5331 5334 5336 5338 5341 5343
5251 5249 5247 5245 5245 5244 5243 5242 5243 5245 5246 5247 5248 5250 5251 5254 5257 5260 5262 5265 5268 5272 5275 5277 5281 5284 5288 5291 5295 5298 5300 5302 5304 5307 5309 5312 5315 5317 5319 5321 5323 5326 5328 5330
5246 5246 5244 5242 5242 5241 5239 5238 5238 5240 5240 5241 5242 5243 5245 5247 5250 5252 5254 5257 5259 5262 5265 5268 5272 5275 5279 5282 5285 5288 5290 5292 5294 5297 5299 5301 5304 5306 5308 5310 5311 5313 5315 5316
5245 5245 5243 5241 5240 5238 5236 5235 5234 5234 5234 5235 5236 5237 5238 5239 5241 5244 5246 5248 5251 5253 5256 5259 5263 5266 5269 5272 5275 5278 5281 5283 5285 5287 5289 5291 5292 5294 5295 5297 5299 5301 5303 5304
5241 5240 5238 5237 5236 5234 5233 5232 5231 5230 5229 5229 5230 5231 5232 5233 5234 5236 5238 5240 5242 5246 5249 5251 5254 5258 5261 5263 5266 5269 5272 5274 5276 5277 5279 5280 5281 5282 5284 5286 5287 5289 5291 5292
5237 5236 5234 5233 5232 5230 5229 5228 5226 5225 5225 5224 5224 5225 5226 5227 5227 5228 5230 5233 5235 5238 5240 5242 5245 5249 5252 5254 5257 5260 5262 5264 5266 5267 5268 5270 5271 5272 5273 5274 5276 5277 5279 5281
5233 5232 5230 5229 5228 5226 5225 5223 5222 5221 5220 5219 5219 5220 5220 5221 5221 5222 5224 5227 5229 5230 5232 5235 5238 5240 5243 5245 5248 5250 5252 5254 5256 5257 5258 5259 5260 5261 5262 5264 5265 5266 5268 5269
5229 5227 5226 5225 5223 5221 5220 5218 5217 5216 5215 5214 5214 5214 5214 5215 5216 5217 5217 5219 5222 5223 5225 5228 5230 5232 5234 5236 5238 5240 5242 5244 5245 5246 5247 5248 5250 5251 5252 5253 5254 5256 5257 5259
5224 5222 5221 5220 5218 5216 5215 5213 5212 5211 5210 5210 5209 5209 5209 5210 5211 5212 5214 5214 5215 5216 5218 5220 5222 5224 5226 5227 5229 5231 5232 5233 5234 5235 5236 5238 5239 5240 5241 5242 5244 5245 5247 5248
5219 5217 5215 5214 5212 5210 5210 5210 5207 5206 5205 5205 5204 5204 5203 5204 5205 5205 5206 5207 5208 5210 5211 5213 5214 5216 5218 5219 5220 5221 5222 5223 5224 5225 5226 5228 5229 5230 5231 5232 5233 5235 5236 5238
5214 5212 5210 5208 5207 5207 5206 5204 5202 5201 5200 5200 5200 5199 5198 5199 5199 5200 5199 5200 5201 5203 5204 5205 5207 5208 5209 5210 5211 5212 5214 5215 5216 5216 5217 5218 5219 5220 5221 5222 5224 5225 5227 5229
5210 5208 5207 5205 5204 5203 5201 5199 5198 5197 5196 5195 5195 5194 5193 5193 5193 5192 5193 5193 5194 5195 5196 5197 5199 5200 5201 5202 5203 5204 5205 5206 5207 5208 5209 5210 5211 5211 5212 5213 5214 5216 5218 5220
5205 5203 5201 5200 5198 5196 5195 5194 5193 5192 5191 5190 5190 5189 5188 5187 5186 5186 5186 5186 5187 5187 5188 5189 5191 5192 5193 5195 5196 5196 5197 5199 5199 5200 5201 5202 5203 5204 5204 5205 5206 5208 5210 5212